This demonstration page uses our WeatherBlox Daily Observations layout. Learn more.

Left ArrowRight Arrow

39.92423, -83.80882

Hourly Observations for September 27, 2021

Temp ( °F °C ) Dew Point ( °F °C ) Humidity (%) Winds ( mph kmh ) Pressure ( in mb ) Visibility ( mi km ) Precip ( " mm )
12:56 am 00:56 Clear 60 15.6 50 10 70 70 SW 10 17 30.02 1017 10 16 N/A
1:56 am 01:56 Clear 59 15 51 10.6 75 75 SW 9 15 30.02 1017 10 16 N/A
2:56 am 02:56 Clear 59 15 51 10.6 75 75 SSW 10 17 30.02 1017 10 16 N/A
3:56 am 03:56 Clear 58 14.4 51 10.6 78 78 SW 9 15 30.01 1016 10 16 N/A
4:56 am 04:56 Clear 58 14.4 51 10.6 78 78 SSW 9 15 30.00 1016 10 16 N/A
5:56 am 05:56 Clear 59 15 52 11.1 78 78 SW 9 15 30.00 1016 10 16 N/A
6:56 am 06:56 Clear 59 15 52 11.1 78 78 SW 10 17 30.01 1016 10 16 N/A
7:56 am 07:56 Sunny 59 15 52 11.1 78 78 SSW 9 15 30.00 1016 10 16 N/A
8:56 am 08:56 Sunny 62 16.7 53 11.7 73 73 SW 13 20 30.00 1016 10 16 N/A
9:56 am 09:56 Sunny 66 18.9 54 12.2 65 65 SW 12 19 29.98 1015 10 16 N/A
10:56 am 10:56 Sunny 73 22.8 56 13.3 55 55 SW 14 22 29.97 1015 10 16 N/A
11:56 am 11:56 Sunny 76 24.4 57 13.9 52 52 SW 17 28 29.94 1014 10 16 N/A
12:56 pm 12:56 Sunny 79 26.1 58 14.4 49 49 WSW 23 37 29.91 1013 10 16 N/A
1:56 pm 13:56 Sunny 80 26.7 59 15 49 49 SW 16 26 29.90 1012 10 16 N/A
2:56 pm 14:56 Sunny 83 28.3 60 15.6 46 46 SW 21 33 29.88 1012 10 16 N/A
3:56 pm 15:56 Sunny 84 28.9 60 15.6 44 44 WSW 16 26 29.87 1011 10 16 N/A
4:56 pm 16:56 Sunny 84 28.9 59 15 43 43 SW 14 22 29.86 1011 10 16 N/A
5:56 pm 17:56 Sunny 80 26.7 60 15.6 51 51 SW 14 22 29.86 1011 10 16 N/A
6:56 pm 18:56 Sunny 78 25.6 61 16.1 56 56 SW 15 24 29.87 1011 10 16 N/A
7:56 pm 19:56 Clear 75 23.9 61 16.1 62 62 SW 12 19 29.88 1012 10 16 N/A
8:56 pm 20:56 Clear 73 22.8 61 16.1 66 66 SW 12 19 29.89 1012 10 16 N/A
9:56 pm 21:56 Clear 71 21.7 61 16.1 71 71 SW 9 15 29.91 1013 10 16 N/A
10:56 pm 22:56 Clear 71 21.7 63 17.2 76 76 SW 8 13 29.91 1013 10 16 0.00 0.00
11:56 pm 23:56 Clear 70 21.1 64 17.8 82 82 SW 8 13 29.91 1013 10 16 N/A

Powered by AerisWeather